Tracking 35331 objects as of 14-Sep-2026
HD Live streaming from Space Station
objects crossing your sky now

SL-4 R/B


SL-4 R/B is no longer on orbit


NORAD ID: 15637
Int'l Code: 1985-027B
Launch date: April 3, 1985
Source: Commonwealth of Independent States (former USSR) (CIS)
Launch site: TYURATAM MISSILE AND SPACE COMPLEX (TTMTR)
Decay date: 1985-04-21

Note: This is a ROCKET BODY
Your satellite tracking list
Your tracking list is empty




NASA's NSSDC Master Catalog

Two Line Element Set (TLE):
1 15637U 85027  B 85111.32319519  .17289782 +16524-4 +32169-3 0  9993
2 15637 070.3303 312.1875 0010647 353.7890 008.0680 16.46745884002894
Source of the keplerian elements: AFSPC